EW9688 Weather Reports


Display with metric or nautical units.
time (UTC)temp
F
wind
direction
speed
MPH
gust
MPH
rain 1hr
in
rain 24hr
in
rain mn
in
humidity
%
barometer
mb
20260905204842 87 81 4.0 7.0 0.00 0.00 0.00 27 1020.9
20260905203823 87 88 4.0 5.0 0.00 0.00 0.00 26 1021.1
20260905202817 87 20 3.0 4.0 0.00 0.00 0.00 27 1021.2
20260905201823 85 36 3.0 4.0 0.00 0.00 0.00 29 1021.2
20260905200820 86 108 6.0 12.0 0.00 0.00 0.00 27 1021.2
20260905195824 87 41 5.0 7.0 0.00 0.00 0.00 27 1021.3
20260905194823 86 27 3.0 4.0 0.00 0.00 0.00 28 1021.4
20260905193818 86 38 4.0 5.0 0.00 0.00 0.00 28 1021.5
20260905192839 86 49 4.0 6.0 0.00 0.00 0.00 28 1021.5
20260905191818 86 15 3.0 5.0 0.00 0.00 0.00 28 1021.6
20260905190818 85 37 4.0 6.0 0.00 0.00 0.00 29 1021.6
20260905185813 85 113 2.0 2.0 0.00 0.00 0.00 28 1021.7
20260905184839 85 31 1.0 3.0 0.00 0.00 0.00 29 1021.9
20260905183819 84 140 3.0 4.0 0.00 0.00 0.00 30 1021.8
20260905182819 85 172 4.0 5.0 0.00 0.00 0.00 30 1021.9
20260905181819 83 39 3.0 3.0 0.00 0.00 0.00 31 1022.0
20260905180830 81 118 3.0 5.0 0.00 0.00 0.00 34 1022.2
20260905175819 81 173 2.0 4.0 0.00 0.00 0.00 34 1022.2
20260905174819 82 25 5.0 7.0 0.00 0.00 0.00 33 1022.2
20260905173839 81 103 3.0 5.0 0.00 0.00 0.00 33 1022.2
20260905172819 81 13 4.0 5.0 0.00 0.00 0.00 33 1022.2
20260905171820 81 149 3.0 4.0 0.00 0.00 0.00 35 1022.1
20260905170920 82 124 5.0 6.0 0.00 0.00 0.00 34 1021.9
20260905165845 83 135 4.0 7.0 0.00 0.00 0.00 33 1021.9
20260905164841 82 18 4.0 6.0 0.00 0.00 0.00 31 1021.9
20260905163820 81 100 5.0 7.0 0.00 0.00 0.00 33 1021.8
20260905162821 81 162 2.0 5.0 0.00 0.00 0.00 33 1021.8
20260905161821 82 137 3.0 5.0 0.00 0.00 0.00 31 1021.7
20260905160842 81 107 4.0 5.0 0.00 0.00 0.00 31 1021.7
20260905155842 80 47 3.0 3.0 0.00 0.00 0.00 31 1021.8
20260905154841 79 129 2.0 3.0 0.00 0.00 0.00 31 1021.8
20260905153842 78 115 3.0 4.0 0.00 0.00 0.00 34 1021.8
20260905152842 76 154 2.0 3.0 0.00 0.00 0.00 35 1021.9
20260905151842 73 172 1.0 2.0 0.00 0.00 0.00 37 1022.0
20260905150818 72 330 1.0 2.0 0.00 0.00 0.00 41 1022.1
20260905145832 72 242 1.0 1.0 0.00 0.00 0.00 41 1022.1
20260905144836 73 205 2.0 3.0 0.00 0.00 0.00 41 1022.1
20260905143917 73 161 1.0 1.0 0.00 0.00 0.00 37 1022.1
20260905142816 74 140 1.0 1.0 0.00 0.00 0.00 37 1022.0
20260905141817 74 69 1.0 1.0 0.00 0.00 0.00 37 1022.0
20260905140845 73 208 2.0 2.0 0.00 0.00 0.00 39 1022.0
20260905135828 71 219 1.0 1.0 0.00 0.00 0.00 43 1021.9
20260905134829 0 308 1.0 2.0 0.00 0.00 0.00
20260905133828 67 255 1.0 1.0 0.00 0.00 0.00 45 1021.8
20260905132829 66 282 1.0 1.0 0.00 0.00 0.00 46 1021.9
20260905131833 65 213 1.0 1.0 0.00 0.00 0.00 47 1021.9
20260905130834 63 203 2.0 2.0 0.00 0.00 0.00 50 1021.9
20260905125818 64 219 1.0 1.0 0.00 0.00 0.00 51 1021.7
20260905124829 64 192 1.0 2.0 0.00 0.00 0.00 48 1021.5
20260905123830 66 217 1.0 2.0 0.00 0.00 0.00 46 1021.4
20260905122851 66 45 0.0 1.0 0.00 0.00 0.00 43 1021.3
20260905121850 66 242 1.0 1.0 0.00 0.00 0.00 42 1021.3
20260905120834 65 34 1.0 2.0 0.00 0.00 0.00 47 1021.2
20260905115828 66 0.0 0.0 0.00 0.00 0.00 45 1021.2
20260905114829 66 237 1.0 1.0 0.00 0.00 0.00 47 1021.2
20260905113830 66 353 0.0 1.0 0.00 0.00 0.00 45 1021.1
20260905112829 66 329 0.0 0.0 0.00 0.00 0.00 45 1021.1
20260905111829 67 0.0 0.0 0.00 0.00 0.00 44 1021.2
20260905110831 68 232 2.0 2.0 0.00 0.00 0.00 41 1021.1
20260905105819 0 238 1.0 1.0 0.00 0.00 0.00
20260905104830 69 245 0.0 1.0 0.00 0.00 0.00 42 1021.0
20260905103829 68 241 2.0 3.0 0.00 0.00 0.00 41 1021.0
20260905102830 66 294 1.0 1.0 0.00 0.00 0.00 46 1021.0
20260905101830 67 319 1.0 1.0 0.00 0.00 0.00 45 1020.9
20260905100830 68 267 0.0 1.0 0.00 0.00 0.00 43 1020.8
20260905095831 68 0.0 0.0 0.00 0.00 0.00 43 1020.7
20260905094830 68 319 1.0 1.0 0.00 0.00 0.00 44 1020.7
20260905093820 0 247 1.0 1.0 0.00 0.00 0.00
20260905092831 69 297 1.0 2.0 0.00 0.00 0.00 41 1020.5
20260905091831 69 260 1.0 2.0 0.00 0.00 0.00 42 1020.5
20260905090911 69 209 2.0 3.0 0.00 0.00 0.00 40 1020.5
20260905085820 68 330 2.0 2.0 0.00 0.00 0.00 42 1020.5
20260905084821 68 267 1.0 2.0 0.00 0.00 0.00 43 1020.5
20260905083821 68 309 1.0 1.0 0.00 0.00 0.00 43 1020.6
20260905082846 68 321 1.0 2.0 0.00 0.00 0.00 43 1020.6
20260905081821 68 277 1.0 2.0 0.00 0.00 0.00 43 1020.7
20260905080822 69 260 1.0 1.0 0.00 0.00 0.00 42 1020.6
20260905075822 68 317 1.0 2.0 0.00 0.00 0.00 41 1020.6
20260905074822 67 256 1.0 1.0 0.00 0.00 0.00 44 1020.6
20260905073902 67 223 1.0 2.0 0.00 0.00 0.00 44 1020.7
20260905072822 68 238 0.0 1.0 0.00 0.00 0.00 43 1020.7
20260905071822 68 223 2.0 3.0 0.00 0.00 0.00 43 1020.6
20260905070823 69 256 1.0 1.0 0.00 0.00 0.00 42 1020.5
20260905065823 70 261 1.0 1.0 0.00 0.00 0.00 41 1020.5
20260905064823 70 293 2.0 2.0 0.00 0.00 0.00 41 1020.4
20260905063823 70 325 1.0 2.0 0.00 0.00 0.00 40 1020.5
20260905062834 70 260 2.0 2.0 0.00 0.00 0.00 40 1020.4
20260905061834 70 311 2.0 2.0 0.00 0.00 0.00 41 1020.4
20260905060835 71 341 2.0 3.0 0.00 0.00 0.00 40 1020.3
20260905055844 71 13 2.0 2.0 0.00 0.00 0.00 40 1020.3
20260905054824 70 256 1.0 1.0 0.00 0.00 0.00 40 1020.3
20260905053824 70 230 1.0 1.0 0.00 0.00 0.00 40 1020.3
20260905052825 70 280 1.0 2.0 0.00 0.00 0.00 40 1020.3
20260905051825 70 243 1.0 2.0 0.00 0.00 0.00 41 1020.4
20260905050825 71 227 1.0 1.0 0.00 0.00 0.00 40 1020.5
20260905045846 72 287 2.0 3.0 0.00 0.00 0.00 40 1020.5
20260905044825 72 310 2.0 3.0 0.00 0.00 0.00 39 1020.5
20260905043825 72 314 2.0 2.0 0.00 0.00 0.00 39 1020.5
20260905042825 72 324 2.0 3.0 0.00 0.00 0.00 39 1020.5
20260905041826 73 357 3.0 3.0 0.00 0.00 0.00 38 1020.5
20260905040826 74 357 2.0 2.0 0.00 0.00 0.00 37 1020.5
20260905035842 0 16 4.0 5.0 0.00 0.00 0.00
20260905034822 0 2 5.0 6.0 0.00 0.00 0.00
20260905033826 76 12 4.0 4.0 0.00 0.00 0.00 34 1020.7
20260905032822 0 9 3.0 4.0 0.00 0.00 0.00
20260905031822 76 356 4.0 4.0 0.00 0.00 0.00 35 1020.6
20260905030827 76 349 3.0 3.0 0.00 0.00 0.00 34 1020.5
20260905025839 76 3 3.0 3.0 0.00 0.00 0.00 35 1020.4
20260905024838 78 360 3.0 3.0 0.00 0.00 0.00 35 1020.2
20260905023840 78 360 3.0 4.0 0.00 0.00 0.00 33 1020.1
20260905022828 78 350 2.0 2.0 0.00 0.00 0.00 33 1020.0
20260905021828 78 8 3.0 3.0 0.00 0.00 0.00 34 1020.0
20260905020848 77 342 1.0 2.0 0.00 0.00 0.00 34 1019.9
20260905015829 77 311 1.0 2.0 0.00 0.00 0.00 35 1019.8
20260905014848 78 296 1.0 1.0 0.00 0.00 0.00 34 1019.8
20260905013828 78 330 1.0 2.0 0.00 0.00 0.00 33 1019.7
20260905012829 78 345 2.0 2.0 0.00 0.00 0.00 33 1019.6
20260905011829 79 340 1.0 2.0 0.00 0.00 0.00 33 1019.6
20260905010829 80 348 2.0 2.0 0.00 0.00 0.00 33 1019.5
20260905005829 81 355 2.0 2.0 0.00 0.00 0.00 32 1019.4
20260905004819 82 4 2.0 3.0 0.00 0.00 0.00 31 1019.5
20260905003830 83 13 3.0 4.0 0.00 0.00 0.00 29 1019.4
20260905002829 83 7 4.0 7.0 0.00 0.00 0.00 29 1019.4
20260905001830 84 49 3.0 4.0 0.00 0.00 0.00 29 1019.3
20260905000819 0 25 4.0 4.0 0.00 0.00 0.00
20260904235830 85 20 7.0 9.0 0.00 0.00 0.00 26 1019.1
20260904234831 86 18 4.0 5.0 0.00 0.00 0.00 26 1019.1
20260904233831 86 19 5.0 7.0 0.00 0.00 0.00 26 1019.0
20260904232851 87 74 3.0 5.0 0.00 0.00 0.00 24 1018.9
20260904231848 87 175 2.0 3.0 0.00 0.00 0.00 22 1018.8
20260904230831 88 55 1.0 2.0 0.00 0.00 0.00 22 1018.8
20260904225848 89 30 4.0 4.0 0.00 0.00 0.00 22 1018.9
20260904224831 89 170 2.0 4.0 0.00 0.00 0.00 22 1018.9
20260904223839 88 88 2.0 3.0 0.00 0.00 0.00 21 1018.8
20260904222831 88 133 3.0 4.0 0.00 0.00 0.00 22 1018.8
20260904221832 88 133 3.0 5.0 0.00 0.00 0.00 22 1018.8
20260904220832 88 128 5.0 8.0 0.00 0.00 0.00 23 1018.9
20260904215832 88 110 5.0 7.0 0.00 0.00 0.00 22 1019.0
20260904214832 87 199 2.0 2.0 0.00 0.00 0.00 23 1019.0
20260904213833 87 147 2.0 3.0 0.00 0.00 0.00 22 1019.1
20260904212847 87 161 5.0 9.0 0.00 0.00 0.00 23 1019.1
20260904211833 88 57 4.0 7.0 0.00 0.00 0.00 23 1019.2
20260904210833 87 126 3.0 4.0 0.00 0.00 0.00 22 1019.4
20260904205843 0 42 3.0 4.0 0.00 0.00 0.00